GFSSGP_sfc_dewp_339.txt.gz
Dewpoint
68 67 68 67 64 56 45 46 46 46 47 49 52 51 53 54 54 55 59 58 62 65 70 72 76 75 75 75 75 75 75 74 74 75 74 74 74 74 74 74 74 75 74 74 74 74 73 74 74
67 69 68 65 57 47 47 47 46 49 51 52 55 53 53 53 56 57 59 62 63 66 69 70 76 76 75 75 75 75 75 74 74 75 75 75 75 74 74 74 75 74 74 74 73 72 72 73 73
70 69 66 61 55 46 44 48 50 52 53 53 53 55 54 55 54 57 61 64 64 65 68 73 75 75 75 75 75 75 75 75 75 75 75 75 75 75 74 75 74 74 74 74 73 73 72 72 73
65 65 62 58 43 45 46 48 51 51 52 52 52 53 56 55 56 59 61 62 62 64 69 75 76 75 75 75 75 75 75 75 74 74 75 75 75 75 74 74 74 75 74 73 73 72 72 72 72
63 62 57 46 44 46 48 49 49 48 50 51 48 50 55 58 58 59 61 61 61 63 69 72 76 74 75 74 75 75 75 75 75 75 75 75 74 74 74 75 74 74 73 73 73 72 72 72 72
60 60 55 46 45 47 49 50 49 47 49 48 47 53 55 59 57 58 60 61 59 61 64 70 75 75 75 74 75 75 75 75 75 75 75 74 74 74 75 75 74 73 73 72 72 72 71 72 72
60 60 48 45 46 48 50 52 49 48 48 48 48 50 57 57 58 59 61 61 59 60 64 68 70 74 75 75 75 75 75 75 75 75 74 74 75 75 74 74 73 73 72 72 72 72 72 73 73
63 56 47 44 46 47 52 51 52 48 48 49 51 52 53 57 59 60 61 60 60 59 61 64 67 68 70 71 75 75 75 75 75 75 74 75 75 74 74 74 74 73 72 72 72 73 73 74 74
61 60 52 46 57 49 52 50 52 51 50 51 52 51 54 59 59 59 60 59 60 59 60 62 64 68 69 69 72 74 75 75 74 74 74 74 69 70 72 74 73 73 72 72 73 73 74 74 74
65 56 48 50 50 49 50 50 50 50 50 52 52 54 56 57 58 58 58 57 58 58 58 60 62 63 65 63 72 70 70 69 69 68 72 69 66 68 68 72 72 72 73 73 74 75 75 74 68
58 50 51 50 50 50 49 49 50 49 49 50 51 54 56 56 56 56 56 56 57 58 58 58 59 63 62 63 66 65 66 65 65 71 71 69 67 68 66 67 65 68 72 66 71 70 67 66 66
55 50 51 51 50 49 50 50 48 50 50 50 53 55 56 54 52 52 53 54 55 57 58 58 60 62 63 63 62 62 63 64 63 67 72 70 68 68 68 66 67 71 66 66 66 63 68 68 69
51 48 49 50 50 50 52 51 50 52 53 51 54 55 55 53 54 54 53 53 55 57 58 59 63 66 65 68 64 66 64 64 61 65 70 68 66 67 68 68 66 67 66 66 66 64 67 69 68
49 48 49 51 50 50 50 52 52 52 54 53 55 55 54 54 56 56 53 53 54 55 56 57 63 67 66 67 68 66 64 63 62 63 65 70 67 68 67 70 68 66 66 65 66 68 68 68 69
49 46 48 49 50 50 50 49 50 54 54 54 55 55 54 55 57 57 53 52 53 53 54 57 62 66 68 69 69 67 64 61 63 62 67 70 70 71 72 67 67 66 68 70 70 71 69 68 66
48 48 52 49 49 50 50 55 52 54 53 54 55 55 55 56 57 58 55 54 56 54 57 57 56 62 66 68 68 64 62 62 62 63 66 71 72 73 73 69 66 67 67 65 67 67 68 68 67
49 54 55 48 47 49 49 50 50 52 52 54 55 55 55 55 57 59 59 56 57 59 59 60 59 58 64 69 66 66 69 65 63 63 63 73 71 71 73 68 67 72 66 67 68 68 69 66 65
53 48 49 45 57 48 47 49 48 52 52 52 54 55 55 55 55 58 59 59 59 61 61 61 61 63 68 65 66 62 64 64 63 62 63 70 69 71 71 67 69 72 68 66 73 73 71 68 68
44 43 46 45 47 45 45 46 47 49 50 51 52 55 55 54 55 56 58 60 60 62 64 62 63 69 66 61 61 62 62 63 63 63 66 69 71 70 73 69 68 70 70 74 73 71 71 67 68
44 49 47 46 45 45 44 44 45 47 49 49 50 53 54 54 55 55 58 59 60 62 64 67 65 69 67 63 64 64 63 61 62 63 69 70 71 71 70 72 70 73 75 74 73 72 67 68 68
46 41 41 41 42 45 50 51 42 43 43 47 49 51 52 54 54 55 57 59 60 62 64 66 70 70 70 69 64 64 64 63 61 62 66 70 73 73 73 73 74 76 76 75 72 71 70 68 70
46 40 40 39 40 44 45 46 52 49 44 47 49 51 51 53 55 57 56 58 60 61 63 67 71 72 71 72 67 72 64 62 60 62 69 76 76 75 74 74 75 74 70 73 70 71 71 69 66
40 40 39 36 35 43 40 28 46 48 35 39 43 47 50 52 54 55 56 60 59 60 62 65 72 73 73 73 70 67 69 66 63 71 75 75 74 73 73 74 74 73 70 72 71 71 71 71 70
40 39 40 38 30 32 29 18 33 32 34 36 42 47 51 54 55 55 57 61 60 63 64 64 72 75 74 75 74 75 73 71 71 70 71 69 69 72 72 73 73 73 72 71 71 72 71 71 68
38 34 33 31 26 23 29 24 26 34 40 45 48 50 54 56 56 56 58 59 62 62 62 68 73 74 74 75 73 73 74 73 72 74 73 69 72 75 72 71 72 71 72 71 71 69 68 67 66
31 32 29 31 24 22 27 30 25 29 39 38 38 49 53 56 55 56 57 59 61 64 65 65 70 71 72 72 74 73 73 74 73 70 69 70 71 70 70 70 70 70 69 69 68 68 68 69 66
38 34 34 26 25 19 19 21 22 28 28 29 32 36 43 53 55 58 59 62 64 64 65 68 69 71 72 72 72 73 72 70 69 69 68 67 69 69 69 68 67 66 66 66 67 68 68 67 65
33 33 28 28 28 23 18 22 21 26 25 31 31 31 41 50 58 59 62 63 64 64 66 67 68 71 72 71 73 71 70 68 67 66 65 66 68 69 67 67 66 65 66 65 66 64 65 63 62
31 34 30 26 20 18 18 19 22 29 30 32 32 33 45 48 57 60 62 64 66 66 68 69 69 72 72 72 71 69 68 66 66 67 67 67 67 68 67 66 66 64 63 63 62 62 63 63 64
19 19 18 17 23 18 18 18 25 29 28 30 32 41 48 55 60 63 64 65 66 68 68 69 72 71 72 72 71 69 68 67 67 68 67 68 68 67 66 65 64 64 62 62 62 60 59 60 61

GFSSGP_sfc_dewp_342.txt.gz
Dewpoint
65 64 70 71 63 59 44 43 44 43 46 49 51 61 53 56 55 56 61 62 65 67 71 73 77 76 75 76 76 76 75 74 74 74 74 75 75 74 74 74 74 74 74 74 74 73 74 74 74
64 68 69 67 58 48 46 44 47 49 49 52 53 53 53 53 57 55 57 62 66 68 69 72 77 76 76 76 76 76 75 74 74 74 75 75 74 74 74 74 74 75 74 73 73 73 73 73 73
70 67 63 61 53 47 46 46 49 49 51 51 51 54 54 53 54 56 60 63 67 68 69 73 77 76 75 75 76 76 75 75 75 75 75 75 75 74 75 74 75 74 74 73 73 72 72 73 73
66 66 68 61 47 44 45 46 49 50 50 49 51 52 52 56 57 60 61 64 66 70 70 75 76 75 75 75 75 75 75 75 74 75 75 75 75 74 75 73 74 74 73 73 72 72 72 72 71
64 63 61 53 43 44 45 46 46 46 48 47 51 51 52 57 59 60 61 63 67 69 71 73 76 76 75 75 76 75 75 75 75 75 75 75 75 75 74 75 75 74 73 73 72 71 71 71 72
64 64 56 43 43 45 47 46 44 45 46 46 52 53 55 58 57 59 59 59 66 67 68 71 75 76 75 76 75 75 75 75 75 75 75 74 75 75 75 75 74 73 73 72 72 72 71 72 73
59 61 53 44 45 47 47 52 44 44 45 45 51 53 56 55 56 58 59 58 64 64 66 70 71 74 75 75 75 75 75 75 75 75 75 74 75 75 75 74 73 73 72 72 73 73 73 74 75
66 66 50 50 53 47 49 47 49 46 46 47 50 53 53 55 57 59 59 57 59 63 64 67 71 71 72 72 75 75 75 75 75 75 74 75 75 74 74 75 75 73 73 73 73 74 75 76 76
63 61 55 51 53 47 48 47 48 48 47 48 50 52 54 56 58 58 57 56 58 61 63 66 66 70 71 72 73 75 75 75 75 75 74 75 72 72 73 75 75 73 73 74 74 75 76 77 76
61 60 51 51 54 50 49 46 47 47 48 49 51 52 56 56 57 57 56 55 55 56 59 63 63 65 68 66 73 73 72 72 72 72 74 73 71 72 69 74 76 74 75 75 76 77 77 77 73
60 58 48 49 50 47 49 46 50 51 54 49 51 53 55 56 57 56 55 55 55 56 56 61 65 66 64 69 70 70 71 70 71 76 74 72 70 73 70 72 70 71 74 71 73 72 73 72 72
57 54 48 48 46 46 48 46 50 51 49 50 52 53 53 54 54 54 54 55 55 55 55 56 64 66 64 69 66 67 68 68 68 70 75 76 73 74 75 72 72 75 73 71 73 68 70 70 73
55 49 49 48 47 47 47 50 46 50 49 50 53 54 53 52 53 53 53 54 55 56 59 58 66 71 68 70 70 71 67 66 67 72 74 76 73 75 74 73 73 74 73 71 74 72 72 73 72
53 48 48 48 47 47 48 48 50 51 51 51 53 53 53 51 52 52 52 51 55 57 58 57 65 71 69 75 75 74 67 71 69 69 71 75 74 75 75 75 74 73 73 73 72 73 74 73 73
53 52 50 46 47 48 52 50 53 58 52 52 53 53 53 53 54 55 53 54 54 55 56 61 65 67 72 75 74 73 72 64 70 70 73 74 75 77 76 74 73 73 74 74 74 75 75 75 71
56 57 55 53 51 53 47 53 54 58 54 53 53 53 53 53 55 56 54 53 56 55 60 62 60 65 69 72 73 71 70 70 67 69 72 72 74 76 77 73 73 74 73 73 73 73 72 71 70
54 55 54 50 55 54 52 55 57 63 59 53 54 54 53 53 56 58 55 52 53 59 63 64 65 65 68 73 71 72 71 69 66 66 68 74 73 74 76 74 75 76 74 73 73 74 73 71 70
50 51 52 50 56 50 50 48 56 59 59 58 54 55 54 53 54 57 57 54 55 61 64 66 64 70 71 71 73 68 67 67 69 69 67 73 72 75 76 74 75 75 75 73 76 75 73 71 69
49 47 47 48 53 50 49 45 47 55 57 59 53 55 55 54 54 56 58 58 58 61 63 66 67 73 69 69 67 66 65 67 67 66 71 73 74 73 76 73 74 76 72 70 73 74 73 71 69
46 44 45 46 47 49 47 48 49 51 53 53 52 53 54 54 53 56 59 59 59 63 65 66 68 73 69 67 67 67 66 67 66 68 71 73 74 75 74 75 74 71 70 66 70 72 71 70 70
42 41 38 38 39 46 47 50 49 50 50 46 46 54 54 54 54 56 59 60 60 64 67 66 68 70 70 69 68 69 73 73 69 70 71 72 75 76 77 75 74 75 72 70 73 73 72 68 70
42 40 34 33 40 47 47 48 52 49 49 45 45 48 48 55 57 61 58 60 60 62 66 70 68 70 70 72 69 71 66 67 69 73 75 75 75 76 75 77 75 76 75 74 73 72 71 70 67
36 32 35 37 31 35 32 39 46 50 41 39 42 44 45 49 55 57 59 60 60 62 64 69 71 70 70 70 72 68 71 67 75 76 75 75 76 76 76 77 77 75 75 74 74 72 71 71 70
40 35 38 37 37 34 27 32 38 36 36 38 40 45 49 53 55 56 60 59 62 63 65 66 72 70 71 70 70 74 71 74 73 75 75 74 74 74 75 75 76 75 75 73 72 73 72 72 70
41 32 33 32 32 32 27 20 30 37 40 40 40 43 50 54 55 55 60 63 63 63 69 70 71 73 71 72 71 71 72 72 71 73 73 70 71 72 73 73 71 72 72 71 72 71 70 70 68
33 33 31 32 23 23 25 28 26 33 38 33 32 34 49 51 50 53 55 60 63 66 69 71 73 73 74 72 72 73 70 71 70 67 66 67 67 69 69 70 70 70 69 69 69 68 68 68 69
32 30 29 26 26 21 18 23 28 28 29 32 31 32 31 46 53 54 55 61 68 66 69 71 74 74 73 73 72 71 71 70 67 68 67 66 67 67 69 69 69 67 67 66 67 68 67 66 66
27 34 30 26 29 23 18 22 24 30 29 33 32 32 43 44 54 55 56 59 64 65 69 70 71 72 72 72 72 72 72 68 67 66 66 65 66 68 68 68 67 66 66 66 66 66 66 64 63
30 26 20 21 24 23 18 18 27 31 30 30 30 36 44 46 52 55 56 61 66 66 68 71 72 72 73 74 73 72 70 68 66 66 66 66 66 67 68 68 67 66 65 66 65 66 64 64 65
23 21 19 17 24 18 18 17 23 30 28 30 30 47 49 52 59 61 63 64 66 68 69 71 73 73 74 73 72 71 69 68 66 67 66 67 67 68 67 67 66 65 64 65 64 62 62 63 63

GFSSGP_sfc_dewp_348.txt.gz
Dewpoint
71 69 70 67 57 58 50 47 49 50 49 53 55 58 56 57 56 51 67 69 71 74 74 75 77 77 76 75 75 75 76 76 75 75 75 75 75 75 75 75 74 74 73 73 73 74 74 75 74
66 69 68 63 54 47 51 50 49 51 52 53 55 56 54 55 59 66 68 70 73 74 74 75 77 77 77 76 76 76 75 75 75 75 75 75 75 75 75 75 74 75 74 73 73 74 74 74 73
71 70 63 59 56 50 49 51 50 53 56 55 55 56 55 59 65 66 70 71 72 73 74 75 77 77 76 76 77 76 75 75 75 75 75 74 75 75 75 75 75 73 73 73 73 73 73 73 73
71 69 67 58 54 53 49 49 50 51 53 55 54 52 56 60 63 66 70 70 71 72 74 76 76 76 76 76 75 75 75 75 75 75 75 75 75 75 75 75 75 75 74 74 74 73 73 73 73
70 66 59 57 55 49 50 49 51 52 53 53 53 53 58 64 65 68 68 70 71 72 74 75 77 77 76 76 76 75 75 75 75 75 75 75 75 74 74 75 75 74 74 74 73 73 73 73 74
62 65 56 53 48 47 49 50 51 51 52 56 56 56 58 65 66 67 68 69 71 73 74 74 76 77 76 76 76 75 75 75 75 75 75 75 75 75 75 75 75 75 74 74 74 73 73 73 74
61 59 56 55 48 48 48 51 51 51 54 54 56 56 58 64 66 66 68 70 71 73 73 73 74 74 76 75 75 75 75 75 75 75 76 76 75 76 75 75 75 74 74 74 74 74 74 75 73
63 61 56 56 51 46 47 47 52 52 53 56 57 55 56 59 66 68 69 70 71 72 72 73 73 73 73 74 76 76 76 75 76 76 74 75 75 76 75 76 76 74 74 74 73 74 75 73 73
65 59 55 55 53 48 46 46 50 51 54 55 56 56 58 62 67 68 68 68 69 70 71 72 72 72 73 73 74 77 75 75 75 75 74 75 74 73 73 75 75 74 74 74 74 74 75 73 72
62 57 57 57 54 49 47 45 46 51 53 54 54 56 57 59 65 66 66 66 67 68 70 71 71 72 72 73 73 73 73 73 75 73 71 74 73 73 73 74 75 75 75 75 75 76 76 71 70
62 57 57 56 54 53 51 48 52 51 52 53 53 55 56 57 61 64 65 65 66 67 69 70 71 71 71 71 73 73 74 73 73 73 72 73 73 72 73 73 73 74 76 73 75 75 74 72 69
60 59 57 58 56 52 49 51 53 52 52 54 54 55 57 57 57 59 63 63 65 66 68 69 70 70 71 71 72 72 73 72 71 71 72 72 72 71 71 73 73 74 73 72 71 73 72 71 70
60 59 55 52 52 52 54 55 54 53 54 55 55 56 57 57 57 57 59 60 63 65 67 67 68 69 69 70 70 71 71 72 70 71 71 71 71 71 71 71 72 71 69 71 71 72 71 71 70
59 56 55 56 55 53 54 56 55 55 55 54 55 55 56 57 57 56 55 55 60 64 65 65 65 68 68 68 69 70 70 71 69 70 71 71 71 70 70 69 71 70 70 70 71 71 70 69 71
57 54 55 53 53 54 52 52 55 58 56 53 54 54 55 56 56 55 55 55 55 61 61 64 65 66 68 67 67 68 69 69 68 69 70 69 71 70 70 68 67 67 70 70 71 70 70 70 71
55 55 51 53 55 55 56 52 57 60 59 58 52 53 54 54 54 55 54 55 56 58 63 64 65 66 67 67 67 66 68 67 68 69 70 68 69 70 69 70 70 70 71 71 70 71 71 71 71
53 49 52 52 52 54 54 55 58 60 59 59 57 53 53 52 53 53 53 55 56 58 63 63 64 67 67 66 67 68 66 66 65 68 69 68 69 68 70 69 69 70 70 70 71 70 70 68 68
51 50 51 51 53 52 53 56 56 59 61 58 57 59 61 54 52 53 54 54 56 58 62 62 64 65 67 67 67 67 67 67 66 69 69 68 68 69 70 72 72 72 72 72 71 71 69 68 66
54 52 52 52 53 50 51 53 56 58 59 57 59 59 61 62 57 55 52 54 55 57 61 62 63 64 67 68 66 65 65 65 66 66 68 69 68 69 70 70 71 70 69 70 71 70 68 68 67
54 53 51 49 52 51 55 54 58 57 57 57 56 57 59 60 59 55 51 52 56 57 59 62 63 65 67 67 67 66 64 65 65 66 67 68 69 70 71 71 70 68 67 66 69 69 68 67 67
51 50 45 42 51 52 51 50 56 58 57 57 57 56 59 59 59 59 52 52 56 56 58 60 63 65 66 66 66 65 66 64 65 65 66 69 70 70 71 71 70 68 67 66 66 69 67 66 67
48 49 46 47 45 42 50 42 51 56 56 56 57 57 57 60 60 60 61 54 56 55 58 61 62 65 66 66 65 63 63 63 62 64 66 70 71 71 72 71 69 69 67 66 65 71 68 67 64
30 35 39 43 43 42 43 36 38 52 50 50 50 55 56 60 60 58 60 59 56 56 59 62 62 66 65 66 64 62 61 63 66 70 70 71 72 73 72 71 71 69 68 67 69 69 66 65 64
37 39 41 45 44 40 39 35 35 44 44 43 46 52 56 58 59 60 61 63 64 60 60 64 64 65 66 66 64 62 62 66 69 68 69 69 69 70 70 72 71 70 70 70 69 68 67 67 67
33 35 34 35 36 35 39 37 36 44 45 43 44 46 52 56 59 59 62 63 65 64 62 64 64 65 67 67 67 66 68 68 68 68 67 68 67 68 68 69 69 69 69 68 68 68 68 68 68
34 33 28 28 31 27 35 33 37 42 41 41 43 48 53 55 58 59 62 64 66 68 67 65 62 65 68 67 68 69 68 69 68 66 67 67 67 68 68 68 68 68 68 68 68 67 67 67 66
28 25 30 27 31 22 26 35 39 39 39 41 37 51 52 56 60 60 63 64 67 68 68 68 67 66 68 68 68 68 68 67 66 66 66 66 66 67 67 67 67 68 68 68 67 66 66 66 66
26 28 26 20 22 21 23 28 32 31 30 35 43 49 53 55 58 62 64 66 67 67 67 67 67 65 66 69 69 68 67 67 66 66 65 64 64 66 66 66 66 66 67 66 65 65 66 65 64
27 29 19 19 22 17 19 19 30 32 32 34 44 54 56 58 61 64 65 66 67 68 68 68 68 68 69 70 69 68 67 67 67 67 65 63 63 64 65 66 65 65 64 64 64 65 64 63 61
28 25 21 20 18 20 20 20 30 32 33 46 48 57 60 61 62 63 65 67 67 67 68 67 66 67 68 69 70 68 68 68 67 66 64 64 63 64 64 65 64 64 64 63 63 63 62 61 60

GFSSGP_sfc_dewp_354.txt.gz
Dewpoint
70 70 69 65 55 53 48 49 50 48 50 55 55 55 54 58 56 52 68 69 72 73 75 75 76 76 75 75 75 75 75 74 74 75 74 73 74 73 73 73 73 73 73 73 73 73 73 73 73
68 69 66 61 50 45 48 51 51 52 55 56 56 56 55 57 65 67 67 71 72 74 75 75 77 76 75 75 75 74 74 74 74 74 74 74 74 74 73 73 73 74 73 73 73 73 73 73 73
70 71 61 56 52 46 47 51 50 55 56 56 54 57 58 62 66 66 69 72 73 74 75 75 77 76 75 75 76 76 75 74 74 75 74 74 75 75 74 74 74 73 73 73 73 74 74 73 73
70 65 64 55 52 53 51 51 52 53 55 55 56 55 62 66 66 68 71 73 73 74 75 76 76 75 75 75 76 75 75 76 75 75 74 75 75 75 74 74 74 74 73 74 73 73 73 73 73
68 65 56 53 52 54 54 52 54 53 53 54 55 57 61 66 69 70 72 72 73 73 74 75 77 76 76 75 75 75 74 74 74 74 74 74 75 75 75 73 73 73 73 73 73 73 72 72 72
60 62 54 50 52 50 50 53 53 54 55 56 57 57 61 69 69 70 71 72 73 73 74 75 76 77 76 75 75 75 75 75 75 75 74 75 75 75 74 75 74 74 74 74 74 74 74 74 73
60 57 54 54 53 48 49 53 53 54 55 55 57 58 62 66 69 69 70 72 72 74 74 73 74 75 75 75 75 75 76 75 75 75 75 75 75 75 75 75 75 74 74 74 74 74 74 74 73
61 60 54 55 53 49 52 52 55 54 55 57 59 59 60 65 68 69 70 72 73 73 74 73 73 73 74 73 76 75 75 75 75 75 75 76 74 74 75 76 75 74 74 74 74 74 74 74 73
65 56 54 54 54 49 52 52 54 56 56 56 57 61 62 67 68 69 70 71 72 72 72 73 73 73 73 73 74 76 75 75 74 75 74 74 74 74 75 75 75 74 74 74 74 74 75 74 73
61 55 56 58 57 52 50 52 52 55 55 55 59 63 65 67 68 68 68 68 69 70 72 73 72 72 72 73 73 74 74 74 74 75 74 73 74 74 74 75 75 74 73 73 74 75 75 74 73
61 54 57 58 58 56 50 50 52 54 53 54 58 63 65 66 67 67 67 68 69 70 71 72 71 72 72 73 73 74 73 73 74 74 72 73 74 74 74 73 73 74 75 75 75 75 76 74 72
59 59 59 60 58 57 53 50 53 53 53 55 61 64 65 66 66 66 67 67 67 69 70 72 71 71 71 72 73 73 73 73 73 73 72 72 74 73 73 73 73 73 74 74 74 73 75 75 73
59 58 57 57 56 55 55 56 53 54 55 57 62 64 65 66 66 66 66 67 67 68 69 71 71 71 71 71 72 72 72 73 73 73 72 72 73 73 72 72 72 73 74 73 73 73 73 74 72
57 58 56 57 56 56 55 56 56 56 55 57 61 63 64 65 66 66 66 66 66 67 67 70 71 71 71 71 72 72 72 73 72 72 72 72 71 72 71 72 72 72 73 73 72 71 72 73 72
59 53 55 55 57 54 55 53 55 55 54 55 55 59 64 64 65 65 66 65 65 66 66 68 70 70 70 70 71 71 71 71 72 71 71 72 72 71 71 70 70 71 72 72 71 71 72 72 71
55 52 50 54 57 56 55 52 55 55 54 53 54 55 57 59 62 64 65 65 65 65 66 68 68 69 69 70 70 71 71 71 71 71 70 71 71 71 70 70 70 70 71 72 70 72 71 70 70
52 47 51 50 55 55 53 50 56 59 55 54 54 55 56 56 58 59 60 64 64 65 66 67 68 68 69 70 70 69 70 70 70 70 70 70 70 71 71 70 70 71 71 71 72 71 71 70 69
46 48 50 48 52 53 53 52 57 58 58 54 54 55 56 56 57 57 58 59 62 63 65 67 67 68 68 69 69 69 68 69 70 70 69 69 69 70 70 70 71 71 72 72 71 71 71 70 69
52 51 50 51 53 51 51 53 53 57 59 58 59 57 57 57 56 57 57 57 57 60 64 66 66 67 67 68 68 67 66 67 68 69 69 70 69 69 70 70 71 72 71 71 71 71 70 69 69
52 50 48 50 52 50 51 51 53 55 57 58 58 58 58 60 60 59 56 56 56 57 62 64 66 66 66 67 67 67 67 67 67 68 69 69 69 69 69 70 71 72 72 71 71 70 68 68 69
51 49 49 48 52 52 51 46 49 56 58 57 57 57 57 57 59 60 59 55 55 58 60 64 66 67 66 67 67 66 67 66 66 66 66 68 70 69 69 70 70 72 71 71 70 70 68 67 68
47 51 50 49 49 44 48 41 44 48 51 56 57 58 57 57 58 59 60 55 55 56 60 63 65 67 67 67 67 66 64 65 65 65 66 67 69 69 70 69 70 71 71 71 70 70 69 68 66
46 41 50 50 44 42 46 44 44 50 45 47 51 55 57 58 58 57 59 60 54 57 58 62 64 66 67 67 67 66 66 66 68 66 66 67 69 70 70 70 71 71 71 70 69 69 69 68 67
43 40 37 41 41 39 39 43 39 42 44 47 49 50 53 54 56 59 60 61 59 56 58 61 63 64 66 67 67 67 66 67 66 66 66 67 68 70 71 72 71 71 70 70 69 68 69 68 67
34 31 28 28 31 34 34 41 41 41 43 48 47 47 50 55 57 59 61 61 62 59 59 61 62 63 66 66 66 67 67 67 66 66 67 68 69 70 71 71 70 70 70 69 68 67 67 67 66
34 28 26 26 24 26 38 38 39 41 42 48 47 50 52 53 54 57 59 62 62 63 62 62 62 62 64 66 67 67 67 67 67 66 67 68 70 70 70 70 70 70 70 70 69 68 68 67 67
34 26 32 25 22 21 28 31 37 41 45 46 46 48 48 53 57 59 62 62 64 64 64 63 63 63 64 66 66 67 67 66 66 67 68 69 68 69 69 69 68 69 69 69 68 68 68 68 68
35 28 29 22 19 22 18 27 33 39 41 43 42 46 50 58 60 61 61 62 64 66 67 67 66 66 66 66 67 67 67 67 66 67 67 67 68 68 68 67 67 67 68 68 67 67 67 68 67
26 28 21 20 19 16 17 19 33 33 37 41 40 44 53 57 59 60 62 64 66 66 67 67 67 67 67 67 67 67 67 67 66 67 67 68 67 67 67 66 66 66 67 67 67 67 67 66 66
25 27 22 25 23 19 19 21 27 42 39 38 37 48 55 59 60 62 64 65 66 66 66 67 67 67 67 67 69 70 68 66 66 67 67 67 66 66 66 66 66 66 66 66 65 65 66 65 65